FloripaSat 1
1 44885U 19093G   25218.49969385  .00004333  00000-0  36228-3 0  9999
2 44885  97.8148 306.2371 0010104  12.4619 347.6852 14.98992337305423
RS-44
1 44909U 19096E   25217.39166063  .00000031  00000-0  74483-4 0  9996
2 44909  82.5218 189.5338 0217736 162.4497 198.4283 12.79742393261955
UPMSat 2
1 46276U 20061E   25217.19425933  .00104960  00000-0  63878-3 0  9992
2 46276  97.2394 293.7861 0001196 185.1921 174.9334 15.77155601274362
SALSAT
1 46495U 20068K   25217.51080676  .00006521  00000-0  27664-3 0  9996
2 46495  97.8639 198.2090 0009972 333.2539  26.8181 15.23440738267194
CubeSX-Sirius-HSE
1 47951U 21022V   25157.62701764  .07883385  25648-5  89537-3 0  9993
2 47951  97.4004  72.1904 0010275 223.9924 136.0557 16.36879307233400
CubeSX-HSE
1 47952U 21022W   25157.69972699  .06655353  25454-5  93288-3 0  9992
2 47952  97.3980  72.5414 0010307 219.3637 140.6911 16.34906352233436
GRBAlpha
1 47959U 21022AD  25160.45426279  .07940347  25506-5  90589-3 0  9995
2 47959  97.3899  75.6235 0011032 227.2558 132.7812 16.36806138232695
TUBIN
1 48900U 21059X   25218.60642170  .00040985  00000-0  41186-3 0  9991
2 48900  97.6766  32.7661 0002617  25.2765 334.8621 15.65365075229106
LEDSAT
1 49069U 21073D   25217.17143595  .00098916  00000-0  85571-3 0  9995
2 49069  97.3850 301.3764 0008903 219.7349 140.3262 15.68828146220282
CUTE
1 49263U 21088D   25217.62777132  .00021316  00000-0  38797-3 0  9995
2 49263  97.4490 295.6231 0007034  39.5533 320.6230 15.49501589213255
TeikyoSat 4
1 49396U 21102B   25217.62610255  .00001623  00000-0  10976-3 0  9999
2 49396  97.4078 253.9918 0010839 302.2581  57.7597 15.07849336205145
Z-Sat
1 49399U 21102E   25218.62411471  .00002927  00000-0  16059-3 0  9998
2 49399  97.3769 258.4149 0016204 261.4901  98.4495 15.14823521205767
KOSEN 1
1 49402U 21102H   25217.52654079  .00006177  00000-0  28142-3 0  9991
2 49402  97.3674 261.2034 0014324 235.4726 124.5158 15.20937029205942
HO-113
1 50466U 21131B   25218.60769803  .00000380  00000-0  13231-3 0  9990
2 50466  98.5099 307.6776 0003425 337.6908  22.4131 14.40870995189805
Foresail-1
1 52766U 22057AL  25176.64799660  .13857605  27391-5  25307-3 0  9992
2 52766  97.5832 331.2310 0012137 233.7199 258.4922 16.46795272172486
SNUGLITE 2
1 52899U 22065F   25217.65653634  .00001025  00000-0  20776-3 0  9996
2 52899  98.1759 359.1000 0006414 299.0291  61.0268 14.63325776164838
UmKA 1 (RS40S)
1 57172U 23091G   25218.63980472  .00005261  00000-0  27738-3 0  9998
2 57172  97.5546 273.7265 0015546 130.5343 229.7246 15.15905380116278
CubeBel-2 (EU11S)
1 57175U 23091K   25218.64307589  .00007929  00000-0  36805-3 0  9992
2 57175  97.5546 275.2434 0013190 136.1443 224.0842 15.20225270116372
VERONIKA
1 58261U 23174F   25218.49236899  .00720446  24435-3  13245-2 0  9998
2 58261  97.4048 309.0921 0010639 250.6093 109.4036 16.01199131 97836
ENSO
1 58470U 23185J   25218.66984586  .00060082  00000-0  68056-3 0  9997
2 58470  97.3694 295.8924 0006605 216.0355 144.0459 15.62198186 94087
EIRSAT-1
1 58472U 23185L   25218.61394690  .00218885  00000-0  95601-3 0  9997
2 58472  97.3606 299.0846 0007475 228.7499 131.3128 15.84101878 94297
SONATE-2
1 59112U 24043Q   25217.34750493  .00016191  00000-0  44324-3 0  9991
2 59112  97.5192 349.7494 0009570 270.7260  89.2887 15.37374458 79058
MO-122
1 60209U 24125G   25217.54197533  .00016274  00000-0  43706-3 0  9998
2 60209  97.2743  68.5747 0016283 294.1740  65.7803 15.37871524 60700
GRBBeta
1 60237U 24128C   25217.49132322  .00002965  00000-0  22756-3 0  9995
2 60237  61.9895 241.0634 0055512  69.5735 291.1305 15.03030323 58757
Curium One
1 60242U 24128H   25217.49512383  .00005359  00000-0  36995-3 0  9990
2 60242  61.9794 238.4664 0055601  65.9061 294.7833 15.05793364 58809
ROBUSTA-3A
1 60243U 24128J   25217.58218654  .00004393  00000-0  31044-3 0  9992
2 60243  61.9864 239.1833 0054646  63.5673 297.1012 15.05302083 58805
CatSat
1 60246U 24125J   25217.55862609  .00015130  00000-0  48673-3 0  9991
2 60246  97.2550  67.1369 0039883 250.0409 109.6535 15.31539882 58705
HYPERVIEW-1G (RS66S)
1 61772U 24199AP  25218.63811425  .00018247  00000-0  49507-3 0  9996
2 61772  97.3457  87.4332 0012171 353.3062   6.8018 15.37591882 85871
AO-123
1 61781U 24199AY  25218.64126422  .00005899  00000-0  21124-3 0  9997
2 61781  97.3475  85.6530 0015360 358.9708   1.1498 15.29029849 85759
ZIMSAT 2
1 61783U 24199BA  25218.65920881  .00033887  00000-0  72763-3 0  9994
2 61783  97.3424  88.5745 0010851 349.3583  10.7434 15.44566038 89102
HADES-R (SO-124)
1 62690U 25009CK  25217.67433314  .00033810  00000-0  10677-2 0  9995
2 62690  97.4068 298.3882 0002699 223.0987 137.0044 15.32755326 30883
HYDRA-T
1 62692U 25009CM  25217.19175621  .00040162  00000-0  12540-2 0  9997
2 62692  97.4068 297.9647 0002610 219.9127 140.1924 15.33079116 30814
JINJUSat 1B
1 63210U 25052A   25217.23343905  .00010827  00000-0  48073-3 0  9995
2 63210  97.4347 110.6584 0006130 114.6828 245.5046 15.21711419 21868
NUSHSAT 1
1 63211U 25052B   25217.28356183  .00011114  00000-0  48840-3 0  9995
2 63211  97.4342 110.7251 0006107 119.0123 241.1726 15.22059070 21874
TEVEL2-4
1 63213U 25052D   25217.44056860  .00011594  00000-0  51456-3 0  9993
2 63213  97.4248 110.6683 0004936 127.8894 232.2789 15.21716734 21897
TEVEL2-5
1 63214U 25052E   25217.63929366  .00010950  00000-0  48653-3 0  9995
2 63214  97.4254 110.8612 0004957 127.0814 233.0876 15.21691321 21920
TEVEL2-6
1 63215U 25052F   25217.44565955  .00011731  00000-0  52163-3 0  9994
2 63215  97.4256 110.6638 0004963 128.6810 231.4871 15.21647858 21898
TEVEL2-1
1 63217U 25052H   25216.21546345  .00010237  00000-0  45917-3 0  9991
2 63217  97.4227 109.3595 0004705 141.5406 218.6165 15.21385504 21704
TEVEL2-3
1 63218U 25052J   25216.93917539  .00010367  00000-0  46473-3 0  9990
2 63218  97.4227 110.0741 0004787 140.7674 219.3910 15.21404011 21818
TEVEL2-2
1 63219U 25052K   25217.20262715  .00011182  00000-0  50098-3 0  9995
2 63219  97.4229 110.3322 0004804 140.5220 219.6367 15.21402451 21853
TEVEL2-9
1 63237U 25052AD  25217.44522637  .00010775  00000-0  50040-3 0  9997
2 63237  97.4295 110.4341 0008513 162.9488 197.2034 15.20155522 21870
TEVEL2-7
1 63238U 25052AE  25217.25255839  .00010915  00000-0  50799-3 0  9991
2 63238  97.4298 110.2366 0008501 164.1606 195.9896 15.20077098 21841
TEVEL2-8
1 63239U 25052AF  25217.25574075  .00011073  00000-0  51575-3 0  9997
2 63239  97.4297 110.2304 0008544 163.4011 196.7505 15.20045617 21840
HYDRA-W
1 63490U 25052BL  25217.12678486  .00026584  00000-0  10378-2 0  9991
2 63490  97.4236 110.7610 0012326 161.9002 198.2677 15.25809647 21879
HADES-ICM (SO-125)
1 63492U 25052BN  25217.22591506  .00024367  00000-0  96860-3 0  9999
2 63492  97.4246 110.7922 0012389 165.6812 194.4779 15.25222297 21889
